Flag for Vietnam Weather past 2 weeks in Da Nang, Vietnam

Now
91 °F

Scattered clouds.


Feels Like: 103 °F
Forecast: 80 / 95 °F
Wind: 14 mph from North

Location: Da Nang Airport

Current Time: Jul 23, 2014 at 1:46:03 PM

Latest Report: Jul 23, 2014 at 1:00 PM


Visibility: N/A

Pressure: 29.62 "Hg

Humidity: 59%

Dew point: 75 °F

Location of Da NangLocation

Historic Weather in Da Nang — Graph

°F

Da Nang temperature yesterday

Maximum temperature yesterday: 93 °F (at 9:00 AM)
Minimum temperature yesterday: 81 °F (at 1:00 AM)
Average temperature yesterday: 85 °F

Past Weeks' High & Low Weather Summary

 TemperatureHumidityPressure
High97 °F (Jul 10, 11:30 AM)94% (Jul 8, 11:30 PM)29.80 "Hg (Jul 8, 11:30 PM)
Low77 °F (Jul 13, 1:00 AM)44% (Jul 20, 10:00 AM)29.50 "Hg (Jul 8, 3:30 PM)
Average85 °F74%29.67 "Hg
* Reported Jul 8 12:00 Noon — Jul 23 12:30 PM, Da Nang, Weather by CustomWeather, © 2014

Note: Actual official high and low records may vary slightly from our data, if they occured in-between our weather recording intervals... More about our weather records

Advertising

Da Nang weather history for previous 24 hours

 ConditionsComfort  
Time TempWeatherWind HumidityBarometerVisibility
12:30 PM
Jul 23
91 °FScattered clouds.14 mph59%29.62 "HgN/A
12:00 PM93 °FScattered clouds.12 mph56%29.62 "HgN/A
11:30 AM91 °FScattered clouds.10 mph59%29.65 "HgN/A
11:00 AM91 °FScattered clouds.10 mph59%29.65 "HgN/A
10:30 AM90 °FScattered clouds.9 mph67%29.65 "HgN/A
10:00 AM90 °FScattered clouds.9 mph63%29.65 "HgN/A
9:30 AM90 °FScattered clouds.9 mph63%29.68 "HgN/A
9:00 AM90 °FScattered clouds.9 mph67%29.65 "HgN/A
8:30 AM88 °FScattered clouds.10 mph70%29.65 "HgN/A
8:00 AM86 °FScattered clouds.7 mph79%29.65 "HgN/A
7:30 AM86 °FScattered clouds.5 mph75%29.65 "HgN/A
7:00 AM86 °FScattered clouds.2 mph70%29.65 "HgN/A
11:30 PM
Jul 22
81 °FPassing clouds.1 mph84%29.68 "HgN/A
11:00 PM81 °FPassing clouds.No wind84%29.71 "HgN/A
10:30 PM81 °FPassing clouds.1 mph84%29.71 "HgN/A
10:00 PM82 °FPassing clouds.6 mph79%29.71 "HgN/A
9:30 PM82 °FPassing clouds.5 mph84%29.71 "HgN/A
9:00 PM84 °FPassing clouds.6 mph79%29.68 "HgN/A
8:30 PM84 °FPassing clouds.5 mph84%29.68 "HgN/A
8:00 PM84 °FPassing clouds.5 mph79%29.68 "HgN/A
7:30 PM84 °FPassing clouds.7 mph79%29.65 "HgN/A
7:00 PM84 °FPassing clouds.6 mph79%29.65 "HgN/A
6:30 PM86 °FPassing clouds.3 mph75%29.62 "HgN/A
6:00 PM86 °FScattered clouds.3 mph70%29.62 "HgN/A
5:30 PM86 °FScattered clouds.7 mph75%29.62 "HgN/A
5:00 PM86 °FScattered clouds.8 mph75%29.59 "HgN/A
4:30 PM88 °FScattered clouds.9 mph66%29.59 "HgN/A
4:00 PM88 °FScattered clouds.13 mph66%29.59 "HgN/A
3:30 PM90 °FScattered clouds.8 mph67%29.59 "HgN/A
3:00 PM90 °FScattered clouds.13 mph63%29.59 "HgN/A
2:30 PM90 °FScattered clouds.10 mph67%29.59 "HgN/A
2:00 PM90 °FPartly sunny.7 mph63%29.62 "HgN/A
1:30 PM88 °FPartly sunny.7 mph70%29.62 "HgN/A
1:00 PM88 °FThunderstorms. Partly sunny.7 mph70%29.65 "Hg5 mi
Weather by CustomWeather, © 2014

See weather overviewHow to use our weather pages